Location: Habighorst
(52.7089°N, 10.2278°E)
Time: 09:46:11
(UTC+00:00)

Meteor 2-10 Rocket - Pass Details

Date: 13 January 2026
Orbit: 733 x 881 km, 81.2° (Epoch: 18 February)

Event Time Altitude Azimuth Distance (km) Brightness Sun altitude
Rises 06:17:00 0° 217° (SW) 3,174 6.6 -9.8°
Reaches altitude 10° 06:19:27 10° 225° (SW) 2,269 5.7 -9.5°
Maximum altitude 06:24:10 38° 293° (WNW) 1,168 4.0 -8.8°
Drops below altitude 10° 06:29:06 10° 2° (N) 2,360 5.8 -8.2°
Sets 06:31:42 0° 10° (N) 3,319 6.6 -7.8°
